Year,Month,Day,Hour,Minute,Value (Times are PST for temperature in C)
2010,03,04,00,00,6.80
2010,03,04,00,01,6.80
2010,03,04,00,02,6.80
2010,03,04,00,03,6.80
2010,03,04,00,04,6.70
2010,03,04,00,05,6.70
2010,03,04,00,06,6.70
2010,03,04,00,07,6.60
2010,03,04,00,08,6.60
2010,03,04,00,09,6.60
2010,03,04,00,10,6.60
2010,03,04,00,11,6.60
2010,03,04,00,12,6.60
2010,03,04,00,13,6.60
2010,03,04,00,14,6.60
2010,03,04,00,15,6.60
2010,03,04,00,16,6.50
2010,03,04,00,17,6.40
2010,03,04,00,18,6.50
2010,03,04,00,19,6.60
2010,03,04,00,20,6.60
2010,03,04,00,21,6.60
2010,03,04,00,22,6.60
2010,03,04,00,23,6.60
2010,03,04,00,24,6.60
2010,03,04,00,25,6.60
2010,03,04,00,26,6.60
2010,03,04,00,27,6.60
2010,03,04,00,28,6.60
2010,03,04,00,29,6.50
2010,03,04,00,30,6.40
2010,03,04,00,31,6.40
2010,03,04,00,32,6.40
2010,03,04,00,33,6.40
2010,03,04,00,34,6.40
2010,03,04,00,35,6.40
2010,03,04,00,36,6.40
2010,03,04,00,37,6.40
2010,03,04,00,38,6.40
2010,03,04,00,39,6.40
2010,03,04,00,40,6.40
2010,03,04,00,41,6.40
2010,03,04,00,42,6.40
2010,03,04,00,43,6.40
2010,03,04,00,44,6.40
2010,03,04,00,45,6.40
2010,03,04,00,46,6.40
2010,03,04,00,47,6.40
2010,03,04,00,48,6.40
2010,03,04,00,49,6.40
2010,03,04,00,50,6.40
2010,03,04,00,51,6.40
2010,03,04,00,52,6.40
2010,03,04,00,53,6.40
2010,03,04,00,54,6.40
2010,03,04,00,55,6.40
2010,03,04,00,56,6.40
2010,03,04,00,57,6.50
2010,03,04,00,58,6.60
2010,03,04,00,59,6.60
2010,03,04,01,00,6.60
2010,03,04,01,01,6.60
2010,03,04,01,02,6.60
2010,03,04,01,03,6.60
2010,03,04,01,04,6.70
2010,03,04,01,05,6.80
2010,03,04,01,06,6.80
2010,03,04,01,07,6.80
2010,03,04,01,08,6.70
2010,03,04,01,09,6.70
2010,03,04,01,10,6.70
2010,03,04,01,11,6.60
2010,03,04,01,12,6.60
2010,03,04,01,13,6.50
2010,03,04,01,14,6.40
2010,03,04,01,15,6.40
2010,03,04,01,16,6.40
2010,03,04,01,17,6.40
2010,03,04,01,18,6.30
2010,03,04,01,19,6.30
2010,03,04,01,20,6.30
2010,03,04,01,21,6.30
2010,03,04,01,22,6.20
2010,03,04,01,23,6.20
2010,03,04,01,24,6.20
2010,03,04,01,25,6.20
2010,03,04,01,26,6.20
2010,03,04,01,27,6.20
2010,03,04,01,28,6.20
2010,03,04,01,29,6.20
2010,03,04,01,30,6.20
2010,03,04,01,31,6.20
2010,03,04,01,32,6.20
2010,03,04,01,33,6.20
2010,03,04,01,34,6.20
2010,03,04,01,35,6.20
2010,03,04,01,36,6.20
2010,03,04,01,37,6.20
2010,03,04,01,38,6.20
2010,03,04,01,39,6.20
2010,03,04,01,40,6.20
2010,03,04,01,41,6.20
2010,03,04,01,42,6.20
2010,03,04,01,43,6.20
2010,03,04,01,44,6.20
2010,03,04,01,45,6.20
2010,03,04,01,46,6.20
2010,03,04,01,47,6.20
2010,03,04,01,48,6.20
2010,03,04,01,49,6.10
2010,03,04,01,50,6.10
2010,03,04,01,51,6.10
2010,03,04,01,52,6.10
2010,03,04,01,53,6.10
2010,03,04,01,54,6.10
2010,03,04,01,55,6.10
2010,03,04,01,56,6.10
2010,03,04,01,57,6.10
2010,03,04,01,58,6.10
2010,03,04,01,59,6.10
2010,03,04,02,00,6.10
2010,03,04,02,01,6.10
2010,03,04,02,02,6.10
2010,03,04,02,03,6.10
2010,03,04,02,04,6.10
2010,03,04,02,05,6.10
2010,03,04,02,06,6.10
2010,03,04,02,07,6.10
2010,03,04,02,08,6.10
2010,03,04,02,09,6.10
2010,03,04,02,10,6.10
2010,03,04,02,11,6.10
2010,03,04,02,12,6.10
2010,03,04,02,13,6.10
2010,03,04,02,14,6.10
2010,03,04,02,15,6.10
2010,03,04,02,16,6.10
2010,03,04,02,17,6.10
2010,03,04,02,18,6.10
2010,03,04,02,19,6.00
2010,03,04,02,20,6.00
2010,03,04,02,21,6.00
2010,03,04,02,22,6.00
2010,03,04,02,23,6.00
2010,03,04,02,24,6.00
2010,03,04,02,25,6.00
2010,03,04,02,26,6.00
2010,03,04,02,27,6.00
2010,03,04,02,28,6.00
2010,03,04,02,29,6.00
2010,03,04,02,30,6.00
2010,03,04,02,31,6.00
2010,03,04,02,32,6.00
2010,03,04,02,33,6.00
2010,03,04,02,34,6.00
2010,03,04,02,35,6.00
2010,03,04,02,36,5.90
2010,03,04,02,37,5.90
2010,03,04,02,38,5.90
2010,03,04,02,39,5.90
2010,03,04,02,40,5.90
2010,03,04,02,41,5.90
2010,03,04,02,42,5.90
2010,03,04,02,43,5.90
2010,03,04,02,44,5.90
2010,03,04,02,45,5.90
2010,03,04,02,46,5.90
2010,03,04,02,47,5.90
2010,03,04,02,48,5.90
2010,03,04,02,49,5.90
2010,03,04,02,50,5.90
2010,03,04,02,51,5.90
2010,03,04,02,52,5.90
2010,03,04,02,53,5.90
2010,03,04,02,54,5.90
2010,03,04,02,55,5.90
2010,03,04,02,56,5.90
2010,03,04,02,57,5.90
2010,03,04,02,58,5.90
2010,03,04,02,59,5.80
2010,03,04,03,00,5.80
2010,03,04,03,01,5.80
2010,03,04,03,02,5.80
2010,03,04,03,03,5.80
2010,03,04,03,04,5.80
2010,03,04,03,05,5.80
2010,03,04,03,06,5.80
2010,03,04,03,07,5.80
2010,03,04,03,08,5.80
2010,03,04,03,09,5.80
2010,03,04,03,10,5.80
2010,03,04,03,11,5.80
2010,03,04,03,12,5.80
2010,03,04,03,13,5.80
2010,03,04,03,14,5.80
2010,03,04,03,15,5.80
2010,03,04,03,16,5.80
2010,03,04,03,17,5.70
2010,03,04,03,18,5.70
2010,03,04,03,19,5.70
2010,03,04,03,20,5.70
2010,03,04,03,21,5.70
2010,03,04,03,22,5.70
2010,03,04,03,23,5.60
2010,03,04,03,24,5.60
2010,03,04,03,25,5.60
2010,03,04,03,26,5.50
2010,03,04,03,27,5.50
2010,03,04,03,28,5.40
2010,03,04,03,29,5.40
2010,03,04,03,30,5.30
2010,03,04,03,31,5.30
2010,03,04,03,32,5.30
2010,03,04,03,33,5.20
2010,03,04,03,34,5.10
2010,03,04,03,35,5.10
2010,03,04,03,36,5.00
2010,03,04,03,37,4.90
2010,03,04,03,38,4.90
2010,03,04,03,39,4.80
2010,03,04,03,40,4.80
2010,03,04,03,41,4.70
2010,03,04,03,42,4.70
2010,03,04,03,43,4.60
2010,03,04,03,44,4.60
2010,03,04,03,45,4.60
2010,03,04,03,46,4.60
2010,03,04,03,47,4.50
2010,03,04,03,48,4.50
2010,03,04,03,49,4.50
2010,03,04,03,50,4.50
2010,03,04,03,51,4.40
2010,03,04,03,52,4.40
2010,03,04,03,53,4.40
2010,03,04,03,54,4.40
2010,03,04,03,55,4.40
2010,03,04,03,56,4.40
2010,03,04,03,57,4.30
2010,03,04,03,58,4.30
2010,03,04,03,59,4.30
2010,03,04,04,00,4.30
2010,03,04,04,01,4.20
2010,03,04,04,02,4.20
2010,03,04,04,03,4.20
2010,03,04,04,04,4.30
2010,03,04,04,05,4.30
2010,03,04,04,06,4.30
2010,03,04,04,07,4.30
2010,03,04,04,08,4.30
2010,03,04,04,09,4.30
2010,03,04,04,10,4.30
2010,03,04,04,11,4.30
2010,03,04,04,12,4.40
2010,03,04,04,13,4.40
2010,03,04,04,14,4.40
2010,03,04,04,15,4.40
2010,03,04,04,16,4.50
2010,03,04,04,17,4.50
2010,03,04,04,18,4.50
2010,03,04,04,19,4.50
2010,03,04,04,20,4.50
2010,03,04,04,21,4.50
2010,03,04,04,22,4.50
2010,03,04,04,23,4.50
2010,03,04,04,24,4.50
2010,03,04,04,25,4.40
2010,03,04,04,26,4.40
2010,03,04,04,27,4.40
2010,03,04,04,28,4.30
2010,03,04,04,29,4.30
2010,03,04,04,30,4.20
2010,03,04,04,31,4.20
2010,03,04,04,32,4.10
2010,03,04,04,33,4.10
2010,03,04,04,34,4.00
2010,03,04,04,35,4.00
2010,03,04,04,36,3.90
2010,03,04,04,37,3.90
2010,03,04,04,38,3.90
2010,03,04,04,39,3.90
2010,03,04,04,40,3.80
2010,03,04,04,41,3.80
2010,03,04,04,42,3.80
2010,03,04,04,43,3.70
2010,03,04,04,44,3.70
2010,03,04,04,45,3.60
2010,03,04,04,46,3.60
2010,03,04,04,47,3.50
2010,03,04,04,48,3.50
2010,03,04,04,49,3.40
2010,03,04,04,50,3.40
2010,03,04,04,51,3.30
2010,03,04,04,52,3.30
2010,03,04,04,53,3.30
2010,03,04,04,54,3.20
2010,03,04,04,55,3.20
2010,03,04,04,56,3.10
2010,03,04,04,57,3.10
2010,03,04,04,58,3.10
2010,03,04,04,59,3.10
2010,03,04,05,00,3.10
2010,03,04,05,01,3.10
2010,03,04,05,02,3.10
2010,03,04,05,03,3.10
2010,03,04,05,04,2.90
2010,03,04,05,05,2.90
2010,03,04,05,06,2.90
2010,03,04,05,07,2.90
2010,03,04,05,08,2.90
2010,03,04,05,09,2.80
2010,03,04,05,10,2.80
2010,03,04,05,11,2.80
2010,03,04,05,12,2.70
2010,03,04,05,13,2.70
2010,03,04,05,14,2.70
2010,03,04,05,15,2.70
2010,03,04,05,16,2.70
2010,03,04,05,17,2.60
2010,03,04,05,18,2.60
2010,03,04,05,19,2.50
2010,03,04,05,20,2.50
2010,03,04,05,21,2.50
2010,03,04,05,22,2.40
2010,03,04,05,23,2.40
2010,03,04,05,24,2.40
2010,03,04,05,25,2.30
2010,03,04,05,26,2.30
2010,03,04,05,27,2.30
2010,03,04,05,28,2.20
2010,03,04,05,29,2.20
2010,03,04,05,30,2.20
2010,03,04,05,31,2.20
2010,03,04,05,32,2.20
2010,03,04,05,33,2.20
2010,03,04,05,34,2.20
2010,03,04,05,35,2.20
2010,03,04,05,36,2.20
2010,03,04,05,37,2.20
2010,03,04,05,38,2.20
2010,03,04,05,39,2.20
2010,03,04,05,40,2.10
2010,03,04,05,41,2.10
2010,03,04,05,42,2.10
2010,03,04,05,43,2.00
2010,03,04,05,44,2.00
2010,03,04,05,45,2.00
2010,03,04,05,46,2.00
2010,03,04,05,47,2.00
2010,03,04,05,48,2.00
2010,03,04,05,49,1.90
2010,03,04,05,50,1.90
2010,03,04,05,51,1.90
2010,03,04,05,52,1.90
2010,03,04,05,53,1.90
2010,03,04,05,54,1.90
2010,03,04,05,55,1.90
2010,03,04,05,56,1.90
2010,03,04,05,57,2.00
2010,03,04,05,58,2.00
2010,03,04,05,59,2.00
2010,03,04,06,00,2.00
2010,03,04,06,01,2.10
2010,03,04,06,02,2.10
2010,03,04,06,03,2.00
2010,03,04,06,04,2.00
2010,03,04,06,05,2.00
2010,03,04,06,06,2.00
2010,03,04,06,07,2.00
2010,03,04,06,08,2.00
2010,03,04,06,09,2.00
2010,03,04,06,10,1.90
2010,03,04,06,11,1.90
2010,03,04,06,12,2.00
2010,03,04,06,13,2.00
2010,03,04,06,14,2.00
2010,03,04,06,15,1.90
2010,03,04,06,16,1.90
2010,03,04,06,17,1.90
2010,03,04,06,18,2.00
2010,03,04,06,19,2.00
2010,03,04,06,20,2.00
2010,03,04,06,21,2.00
2010,03,04,06,22,2.00
2010,03,04,06,23,2.00
2010,03,04,06,24,1.90
2010,03,04,06,25,1.90
2010,03,04,06,26,1.80
2010,03,04,06,27,1.80
2010,03,04,06,28,1.80
2010,03,04,06,29,1.80
2010,03,04,06,30,1.80
2010,03,04,06,31,1.70
2010,03,04,06,32,1.70
2010,03,04,06,33,1.70
2010,03,04,06,34,1.70
2010,03,04,06,35,1.60
2010,03,04,06,36,1.60
2010,03,04,06,37,1.60
2010,03,04,06,38,1.60
2010,03,04,06,39,1.50
2010,03,04,06,40,1.50
2010,03,04,06,41,1.50
2010,03,04,06,42,1.50
2010,03,04,06,43,1.50
2010,03,04,06,44,1.50
2010,03,04,06,45,1.60
2010,03,04,06,46,1.60
2010,03,04,06,47,1.60
2010,03,04,06,48,1.60
2010,03,04,06,49,1.60
2010,03,04,06,50,1.60
2010,03,04,06,51,1.60
2010,03,04,06,52,1.60
2010,03,04,06,53,1.60
2010,03,04,06,54,1.60
2010,03,04,06,55,1.60
2010,03,04,06,56,1.60
2010,03,04,06,57,1.50
2010,03,04,06,58,1.50
2010,03,04,06,59,1.50
2010,03,04,07,00,1.50
2010,03,04,07,01,1.50
2010,03,04,07,02,1.50
2010,03,04,07,03,1.50
2010,03,04,07,04,1.50
2010,03,04,07,05,1.50
2010,03,04,07,06,1.50
2010,03,04,07,07,1.50
2010,03,04,07,08,1.50
2010,03,04,07,09,1.50
2010,03,04,07,10,1.50
2010,03,04,07,11,1.50
2010,03,04,07,12,1.50
2010,03,04,07,13,1.60
2010,03,04,07,14,1.60
2010,03,04,07,15,1.60
2010,03,04,07,16,1.60
2010,03,04,07,17,1.60
2010,03,04,07,18,1.60
2010,03,04,07,19,1.60
2010,03,04,07,20,1.60
2010,03,04,07,21,1.60
2010,03,04,07,22,1.60
2010,03,04,07,23,1.60
2010,03,04,07,24,1.60
2010,03,04,07,25,1.60
2010,03,04,07,26,1.50
2010,03,04,07,27,1.50
2010,03,04,07,28,1.50
2010,03,04,07,29,1.50
2010,03,04,07,30,1.50
2010,03,04,07,31,1.50
2010,03,04,07,32,1.50
2010,03,04,07,33,1.50
2010,03,04,07,34,1.50
2010,03,04,07,35,1.50
2010,03,04,07,36,1.50
2010,03,04,07,37,1.50
2010,03,04,07,38,1.50
2010,03,04,07,39,1.50
2010,03,04,07,40,1.50
2010,03,04,07,41,1.50
2010,03,04,07,42,1.60
2010,03,04,07,43,1.60
2010,03,04,07,44,1.60
2010,03,04,07,45,1.70
2010,03,04,07,46,1.70
2010,03,04,07,47,1.80
2010,03,04,07,48,1.80
2010,03,04,07,49,1.80
2010,03,04,07,50,1.80
2010,03,04,07,51,1.80
2010,03,04,07,52,1.80
2010,03,04,07,53,1.80
2010,03,04,07,54,1.90
2010,03,04,07,55,1.90
2010,03,04,07,56,1.90
2010,03,04,07,57,1.90
2010,03,04,07,58,1.90
2010,03,04,07,59,2.00
2010,03,04,08,00,2.00
2010,03,04,08,01,2.00
2010,03,04,08,02,2.10
2010,03,04,08,03,2.10
2010,03,04,08,04,2.20
2010,03,04,08,05,2.20
2010,03,04,08,06,2.20
2010,03,04,08,07,2.30
2010,03,04,08,08,2.30
2010,03,04,08,09,2.40
2010,03,04,08,10,2.50
2010,03,04,08,11,2.60
2010,03,04,08,12,2.70
2010,03,04,08,13,2.80
2010,03,04,08,14,2.90
2010,03,04,08,15,2.90
2010,03,04,08,16,3.00
2010,03,04,08,17,3.10
2010,03,04,08,18,3.20
2010,03,04,08,19,3.20
2010,03,04,08,20,3.30
2010,03,04,08,21,3.30
2010,03,04,08,22,3.40
2010,03,04,08,23,3.50
2010,03,04,08,24,3.50
2010,03,04,08,25,3.50
2010,03,04,08,26,3.60
2010,03,04,08,27,3.60
2010,03,04,08,28,3.70
2010,03,04,08,29,3.70
2010,03,04,08,30,3.80
2010,03,04,08,31,3.80
2010,03,04,08,32,3.90
2010,03,04,08,33,4.00
2010,03,04,08,34,4.00
2010,03,04,08,35,4.10
2010,03,04,08,36,4.20
2010,03,04,08,37,4.20
2010,03,04,08,38,4.30
2010,03,04,08,39,4.40
2010,03,04,08,40,4.50
2010,03,04,08,41,4.50
2010,03,04,08,42,4.60
2010,03,04,08,43,4.60
2010,03,04,08,44,4.70
2010,03,04,08,45,4.80
2010,03,04,08,46,4.90
2010,03,04,08,47,5.00
2010,03,04,08,48,5.10
2010,03,04,08,49,5.20
2010,03,04,08,50,5.30
2010,03,04,08,51,5.40
2010,03,04,08,52,5.50
2010,03,04,08,53,5.60
2010,03,04,08,54,5.70
2010,03,04,08,55,5.80
2010,03,04,08,56,6.00
2010,03,04,08,57,6.10
2010,03,04,08,58,6.20
2010,03,04,08,59,6.30
2010,03,04,09,00,6.40
2010,03,04,09,01,6.60
2010,03,04,09,02,6.60
2010,03,04,09,03,6.60
2010,03,04,09,04,6.70
2010,03,04,09,05,6.70
2010,03,04,09,06,6.80
2010,03,04,09,07,6.80
2010,03,04,09,08,6.80
2010,03,04,09,09,6.80
2010,03,04,09,10,6.90
2010,03,04,09,11,7.00
2010,03,04,09,12,7.00
2010,03,04,09,13,7.10
2010,03,04,09,14,7.20
2010,03,04,09,15,7.30
2010,03,04,09,16,7.30
2010,03,04,09,17,7.40
2010,03,04,09,18,7.50
2010,03,04,09,19,7.60
2010,03,04,09,20,7.70
2010,03,04,09,21,7.80
2010,03,04,09,22,7.90
2010,03,04,09,23,7.90
2010,03,04,09,24,8.00
2010,03,04,09,25,8.00
2010,03,04,09,26,8.00
2010,03,04,09,27,8.00
2010,03,04,09,28,8.00
2010,03,04,09,29,8.10
2010,03,04,09,30,8.10
2010,03,04,09,31,8.20
2010,03,04,09,32,8.20
2010,03,04,09,33,8.20
2010,03,04,09,34,8.20
2010,03,04,09,35,8.20
2010,03,04,09,36,8.20
2010,03,04,09,37,8.20
2010,03,04,09,38,8.30
2010,03,04,09,39,8.20
2010,03,04,09,40,8.20
2010,03,04,09,41,8.20
2010,03,04,09,42,8.20
2010,03,04,09,43,8.30
2010,03,04,09,44,8.30
2010,03,04,09,45,8.40
2010,03,04,09,46,8.50
2010,03,04,09,47,8.60
2010,03,04,09,48,8.50
2010,03,04,09,49,8.50
2010,03,04,09,50,8.50
2010,03,04,09,51,8.60
2010,03,04,09,52,8.60
2010,03,04,09,53,8.60
2010,03,04,09,54,8.70
2010,03,04,09,55,8.70
2010,03,04,09,56,8.70
2010,03,04,09,57,8.70
2010,03,04,09,58,8.80
2010,03,04,09,59,8.80
2010,03,04,10,00,8.80
2010,03,04,10,01,8.90
2010,03,04,10,02,8.90
2010,03,04,10,03,8.90
2010,03,04,10,04,8.90
2010,03,04,10,05,9.00
2010,03,04,10,06,9.00
2010,03,04,10,07,9.00
2010,03,04,10,08,9.10
2010,03,04,10,09,9.10
2010,03,04,10,10,9.20
2010,03,04,10,11,9.20
2010,03,04,10,12,9.20
2010,03,04,10,13,9.20
2010,03,04,10,14,9.20
2010,03,04,10,15,9.20
2010,03,04,10,16,9.20
2010,03,04,10,17,9.20
2010,03,04,10,18,9.20
2010,03,04,10,19,9.20
2010,03,04,10,20,9.30
2010,03,04,10,21,9.40
2010,03,04,10,22,9.50
2010,03,04,10,23,9.50
2010,03,04,10,24,9.50
2010,03,04,10,25,9.50
2010,03,04,10,26,9.60
2010,03,04,10,27,9.70
2010,03,04,10,28,9.70
2010,03,04,10,29,9.70
2010,03,04,10,30,9.80
2010,03,04,10,31,9.90
2010,03,04,10,32,9.90
2010,03,04,10,33,9.90
2010,03,04,10,34,10.00
2010,03,04,10,35,10.10
2010,03,04,10,36,9.90
2010,03,04,10,37,9.90
2010,03,04,10,38,9.80
2010,03,04,10,39,9.70
2010,03,04,10,40,9.70
2010,03,04,10,41,9.70
2010,03,04,10,42,9.70
2010,03,04,10,43,9.70
2010,03,04,10,44,9.70
2010,03,04,10,45,9.70
2010,03,04,10,46,9.70
2010,03,04,10,47,9.80
2010,03,04,10,48,9.90
2010,03,04,10,49,9.80
2010,03,04,10,50,9.70
2010,03,04,10,51,9.70
2010,03,04,10,52,9.80
2010,03,04,10,53,9.80
2010,03,04,10,54,9.80
2010,03,04,10,55,9.80
2010,03,04,10,56,9.70
2010,03,04,10,57,9.80
2010,03,04,10,58,9.80
2010,03,04,10,59,9.90
2010,03,04,11,00,9.90
2010,03,04,11,01,9.90
2010,03,04,11,02,10.00
2010,03,04,11,03,10.10
2010,03,04,11,04,10.10
2010,03,04,11,05,10.10
2010,03,04,11,06,10.10
2010,03,04,11,07,10.10
2010,03,04,11,08,10.20
2010,03,04,11,09,10.30
2010,03,04,11,10,10.30
2010,03,04,11,11,10.30
2010,03,04,11,12,10.20
2010,03,04,11,13,10.30
2010,03,04,11,14,10.30
2010,03,04,11,15,10.30
2010,03,04,11,16,10.30
2010,03,04,11,17,10.30
2010,03,04,11,18,10.30
2010,03,04,11,19,10.30
2010,03,04,11,20,10.30
2010,03,04,11,21,10.30
2010,03,04,11,22,10.30
2010,03,04,11,23,10.40
2010,03,04,11,24,10.40
2010,03,04,11,25,10.40
2010,03,04,11,26,10.40
2010,03,04,11,27,10.40
2010,03,04,11,28,10.30
2010,03,04,11,29,10.30
2010,03,04,11,30,10.30
2010,03,04,11,31,10.40
2010,03,04,11,32,10.40
2010,03,04,11,33,10.50
2010,03,04,11,34,10.60
2010,03,04,11,35,10.60
2010,03,04,11,36,10.60
2010,03,04,11,37,10.60
2010,03,04,11,38,10.60
2010,03,04,11,39,10.60
2010,03,04,11,40,10.60
2010,03,04,11,41,10.60
2010,03,04,11,42,10.60
2010,03,04,11,43,10.60
2010,03,04,11,44,10.70
2010,03,04,11,45,10.80
2010,03,04,11,46,10.80
2010,03,04,11,47,10.90
2010,03,04,11,48,10.90
2010,03,04,11,49,10.90
2010,03,04,11,50,10.90
2010,03,04,11,51,10.90
2010,03,04,11,52,10.80
2010,03,04,11,53,10.80
2010,03,04,11,54,10.80
2010,03,04,11,55,10.90
2010,03,04,11,56,10.90
2010,03,04,11,57,10.90
2010,03,04,11,58,10.90
2010,03,04,11,59,10.90
2010,03,04,12,00,10.90
2010,03,04,12,01,10.80
2010,03,04,12,02,10.90
2010,03,04,12,03,10.90
2010,03,04,12,04,10.90
2010,03,04,12,05,11.00
2010,03,04,12,06,11.10
2010,03,04,12,07,11.10
2010,03,04,12,08,11.10
2010,03,04,12,09,11.10
2010,03,04,12,10,11.10
2010,03,04,12,11,11.10
2010,03,04,12,12,11.10
2010,03,04,12,13,11.10
2010,03,04,12,14,11.00
2010,03,04,12,15,10.90
2010,03,04,12,16,10.80
2010,03,04,12,17,10.80
2010,03,04,12,18,10.80
2010,03,04,12,19,10.70
2010,03,04,12,20,10.60
2010,03,04,12,21,10.70
2010,03,04,12,22,10.70
2010,03,04,12,23,10.70
2010,03,04,12,24,10.80
2010,03,04,12,25,10.80
2010,03,04,12,26,10.90
2010,03,04,12,27,10.90
2010,03,04,12,28,10.90
2010,03,04,12,29,10.90
2010,03,04,12,30,10.90
2010,03,04,12,31,10.90
2010,03,04,12,32,10.90
2010,03,04,12,33,10.90
2010,03,04,12,34,10.90
2010,03,04,12,35,10.90
2010,03,04,12,36,10.90
2010,03,04,12,37,10.90
2010,03,04,12,38,10.90
2010,03,04,12,39,11.00
2010,03,04,12,40,11.10
2010,03,04,12,41,11.10
2010,03,04,12,42,11.20
2010,03,04,12,43,11.30
2010,03,04,12,44,11.30
2010,03,04,12,45,11.30
2010,03,04,12,46,11.30
2010,03,04,12,47,11.40
2010,03,04,12,48,11.40
2010,03,04,12,49,11.40
2010,03,04,12,50,11.40
2010,03,04,12,51,11.40
2010,03,04,12,52,11.40
2010,03,04,12,53,11.40
2010,03,04,12,54,11.60
2010,03,04,12,55,11.60
2010,03,04,12,56,11.60
2010,03,04,12,57,11.60
2010,03,04,12,58,11.70
2010,03,04,12,59,11.80
2010,03,04,13,00,11.80
2010,03,04,13,01,11.80
2010,03,04,13,02,11.90
2010,03,04,13,03,11.90
2010,03,04,13,04,11.80
2010,03,04,13,05,11.80
2010,03,04,13,06,11.80
2010,03,04,13,07,11.80
2010,03,04,13,08,11.80
2010,03,04,13,09,11.80
2010,03,04,13,10,11.80
2010,03,04,13,11,11.70
2010,03,04,13,12,11.70
2010,03,04,13,13,11.80
2010,03,04,13,14,11.80
2010,03,04,13,15,11.80
2010,03,04,13,16,11.80
2010,03,04,13,17,11.70
2010,03,04,13,18,11.70
2010,03,04,13,19,11.70
2010,03,04,13,20,11.80
2010,03,04,13,21,11.80
2010,03,04,13,22,11.80
2010,03,04,13,23,11.90
2010,03,04,13,24,11.90
2010,03,04,13,25,11.90
2010,03,04,13,26,11.90
2010,03,04,13,27,12.00
2010,03,04,13,28,12.00
2010,03,04,13,29,12.00
2010,03,04,13,30,12.00
2010,03,04,13,31,12.00
2010,03,04,13,32,12.00
2010,03,04,13,33,12.10
2010,03,04,13,34,12.10
2010,03,04,13,35,12.10
2010,03,04,13,36,12.10
2010,03,04,13,37,12.00
2010,03,04,13,38,12.00
2010,03,04,13,39,12.00
2010,03,04,13,40,11.90
2010,03,04,13,41,11.90
2010,03,04,13,42,11.80
2010,03,04,13,43,11.80
2010,03,04,13,44,11.90
2010,03,04,13,45,12.00
2010,03,04,13,46,12.00
2010,03,04,13,47,12.00
2010,03,04,13,48,12.00
2010,03,04,13,49,12.10
2010,03,04,13,50,12.10
2010,03,04,13,51,12.20
2010,03,04,13,52,12.30
2010,03,04,13,53,12.20
2010,03,04,13,54,12.20
2010,03,04,13,55,12.20
2010,03,04,13,56,12.20
2010,03,04,13,57,12.20
2010,03,04,13,58,12.30
2010,03,04,13,59,12.30
2010,03,04,14,00,12.30
2010,03,04,14,01,12.30
2010,03,04,14,02,12.20
2010,03,04,14,03,12.10
2010,03,04,14,04,12.10
2010,03,04,14,05,12.10
2010,03,04,14,06,12.10
2010,03,04,14,07,12.10
2010,03,04,14,08,12.10
2010,03,04,14,09,12.10
2010,03,04,14,10,12.10
2010,03,04,14,11,12.20
2010,03,04,14,12,12.30
2010,03,04,14,13,12.30
2010,03,04,14,14,12.40
2010,03,04,14,15,12.50
2010,03,04,14,16,12.50
2010,03,04,14,17,12.50
2010,03,04,14,18,12.40
2010,03,04,14,19,12.40
2010,03,04,14,20,12.30
2010,03,04,14,21,12.20
2010,03,04,14,22,12.10
2010,03,04,14,23,12.20
2010,03,04,14,24,12.10
2010,03,04,14,25,12.10
2010,03,04,14,26,12.00
2010,03,04,14,27,11.80
2010,03,04,14,28,11.70
2010,03,04,14,29,11.50
2010,03,04,14,30,11.40
2010,03,04,14,31,11.50
2010,03,04,14,32,11.60
2010,03,04,14,33,11.60
2010,03,04,14,34,11.80
2010,03,04,14,35,11.80
2010,03,04,14,36,11.90
2010,03,04,14,37,11.90
2010,03,04,14,38,11.80
2010,03,04,14,39,11.70
2010,03,04,14,40,11.60
2010,03,04,14,41,11.40
2010,03,04,14,42,11.30
2010,03,04,14,43,11.10
2010,03,04,14,44,11.10
2010,03,04,14,45,11.10
2010,03,04,14,46,11.00
2010,03,04,14,47,11.00
2010,03,04,14,48,11.10
2010,03,04,14,49,11.10
2010,03,04,14,50,11.20
2010,03,04,14,51,11.30
2010,03,04,14,52,11.30
2010,03,04,14,53,11.20
2010,03,04,14,54,11.10
2010,03,04,14,55,11.10
2010,03,04,14,56,11.10
2010,03,04,14,57,11.00
2010,03,04,14,58,10.90
2010,03,04,14,59,10.90
2010,03,04,15,00,10.90
2010,03,04,15,01,10.90
2010,03,04,15,02,11.00
2010,03,04,15,03,11.00
2010,03,04,15,04,10.90
2010,03,04,15,05,10.80
2010,03,04,15,06,10.70
2010,03,04,15,07,10.60
2010,03,04,15,08,10.60
2010,03,04,15,09,10.70
2010,03,04,15,10,10.70
2010,03,04,15,11,10.70
2010,03,04,15,12,10.80
2010,03,04,15,13,10.90
2010,03,04,15,14,10.90
2010,03,04,15,15,10.90
2010,03,04,15,16,10.90
2010,03,04,15,17,11.10
2010,03,04,15,18,11.10
2010,03,04,15,19,11.10
2010,03,04,15,20,11.10
2010,03,04,15,21,11.10
2010,03,04,15,22,11.10
2010,03,04,15,23,11.00
2010,03,04,15,24,10.90
2010,03,04,15,25,10.80
2010,03,04,15,26,10.80
2010,03,04,15,27,10.70
2010,03,04,15,28,10.80
2010,03,04,15,29,10.80
2010,03,04,15,30,10.80
2010,03,04,15,31,10.80
2010,03,04,15,32,10.80
2010,03,04,15,33,10.80
2010,03,04,15,34,10.80
2010,03,04,15,35,10.80
2010,03,04,15,36,10.60
2010,03,04,15,37,10.60
2010,03,04,15,38,10.60
2010,03,04,15,39,10.60
2010,03,04,15,40,10.60
2010,03,04,15,41,10.60
2010,03,04,15,42,10.60
2010,03,04,15,43,10.60
2010,03,04,15,44,10.60
2010,03,04,15,45,10.60
2010,03,04,15,46,10.60
2010,03,04,15,47,10.50
2010,03,04,15,48,10.40
2010,03,04,15,49,10.40
2010,03,04,15,50,10.40
2010,03,04,15,51,10.40
2010,03,04,15,52,10.40
2010,03,04,15,53,10.40
2010,03,04,15,54,10.30
2010,03,04,15,55,10.30
2010,03,04,15,56,10.30
2010,03,04,15,57,10.30
2010,03,04,15,58,10.30
2010,03,04,15,59,10.30
2010,03,04,16,00,10.30
2010,03,04,16,01,10.30
2010,03,04,16,02,10.30
2010,03,04,16,03,10.30
2010,03,04,16,04,10.30
2010,03,04,16,05,10.20
2010,03,04,16,06,10.20
2010,03,04,16,07,10.10
2010,03,04,16,08,10.10
2010,03,04,16,09,10.10
2010,03,04,16,10,10.10
2010,03,04,16,11,10.10
2010,03,04,16,12,10.10
2010,03,04,16,13,10.00
2010,03,04,16,14,9.90
2010,03,04,16,15,9.90
2010,03,04,16,16,9.90
2010,03,04,16,17,9.90
2010,03,04,16,18,9.90
2010,03,04,16,19,9.80
2010,03,04,16,20,9.80
2010,03,04,16,21,9.80
2010,03,04,16,22,9.70
2010,03,04,16,23,9.70
2010,03,04,16,24,9.70
2010,03,04,16,25,9.70
2010,03,04,16,26,9.70
2010,03,04,16,27,9.70
2010,03,04,16,28,9.70
2010,03,04,16,29,9.70
2010,03,04,16,30,9.70
2010,03,04,16,31,9.70
2010,03,04,16,32,9.70
2010,03,04,16,33,9.70
2010,03,04,16,34,9.70
2010,03,04,16,35,9.70
2010,03,04,16,36,9.70
2010,03,04,16,37,9.70
2010,03,04,16,38,9.70
2010,03,04,16,39,9.70
2010,03,04,16,40,9.70
2010,03,04,16,41,9.70
2010,03,04,16,42,9.60
2010,03,04,16,43,9.60
2010,03,04,16,44,9.50
2010,03,04,16,45,9.50
2010,03,04,16,46,9.40
2010,03,04,16,47,9.40
2010,03,04,16,48,9.40
2010,03,04,16,49,9.30
2010,03,04,16,50,9.30
2010,03,04,16,51,9.30
2010,03,04,16,52,9.30
2010,03,04,16,53,9.30
2010,03,04,16,54,9.20
2010,03,04,16,55,9.20
2010,03,04,16,56,9.20
2010,03,04,16,57,9.20
2010,03,04,16,58,9.20
2010,03,04,16,59,9.10
2010,03,04,17,00,9.10
2010,03,04,17,01,9.10
2010,03,04,17,02,9.00
2010,03,04,17,03,9.00
2010,03,04,17,04,9.00
2010,03,04,17,05,9.00
2010,03,04,17,06,8.90
2010,03,04,17,07,8.90
2010,03,04,17,08,8.90
2010,03,04,17,09,8.90
2010,03,04,17,10,8.80
2010,03,04,17,11,8.80
2010,03,04,17,12,8.80
2010,03,04,17,13,8.80
2010,03,04,17,14,8.70
2010,03,04,17,15,8.70
2010,03,04,17,16,8.70
2010,03,04,17,17,8.70
2010,03,04,17,18,8.70
2010,03,04,17,19,8.70
2010,03,04,17,20,8.70
2010,03,04,17,21,8.70
2010,03,04,17,22,8.60
2010,03,04,17,23,8.60
2010,03,04,17,24,8.60
2010,03,04,17,25,8.60
2010,03,04,17,26,8.50
2010,03,04,17,27,8.50
2010,03,04,17,28,8.50
2010,03,04,17,29,8.50
2010,03,04,17,30,8.50
2010,03,04,17,31,8.40
2010,03,04,17,32,8.40
2010,03,04,17,33,8.40
2010,03,04,17,34,8.40
2010,03,04,17,35,8.40
2010,03,04,17,36,8.30
2010,03,04,17,37,8.30
2010,03,04,17,38,8.30
2010,03,04,17,39,8.30
2010,03,04,17,40,8.30
2010,03,04,17,41,8.20
2010,03,04,17,42,8.20
2010,03,04,17,43,8.20
2010,03,04,17,44,8.20
2010,03,04,17,45,8.20
2010,03,04,17,46,8.20
2010,03,04,17,47,8.20
2010,03,04,17,48,8.10
2010,03,04,17,49,8.10
2010,03,04,17,50,8.00
2010,03,04,17,51,8.00
2010,03,04,17,52,8.00